カタログに戻る

STARLINK-35925

運用中通信VLEO
NORAD 66887·PAYLOAD·🇺🇸 United States

打ち上げ Dec 4, 2025 から Vandenberg Space Force Base

Loading…

次のパス (今後24時間)

TLE

最新Source: CelesTrak SupGP

元期: Sep 15, 2026, 03:14 UTC

1 66887C 25283K   26258.13520833 -.00070211  00000+0 -20743-2 0  2581
2 66887  53.1576 220.8766 0001334  90.4931   1.1848 15.34427624    13

AllMySatでSTARLINK-35925をリアルタイム追跡

Download on the App Store